Find Starlink 32332

NORAD ID: 62490 Int'l Des: 2025-003 Owner: SPXS Country: US Constellation: starlink operational
LEOCIRCULAR

实时位置

正在加载3D地球...

关于 Starlink 32332

正在加载描述...

即将过境

Passes for default location (London). Set your location on the main map for personalized predictions.

高度历史

Loading altitude history...

两行轨道根数

1 62490U 25003D 26124.61749044 .00027003 00000-0 98685-3 0 9992
2 62490 43.0036 333.2377 0000510 277.1951 82.8843 15.27591924 75207
Epoch: May 4, 2026 • Age: 7 hours

当前状态

高度 484.6 km
速度 7.63 km/s
星下点 34.19°N, 82.17°W
发射日期 Jan 6, 2025
运行时间 1.3 years
类型 internet

技术详情

分类 Payload
质量 730.00 kg
干质量 700.00 kg
总质量 730.00 kg
长度 0.30 m
直径 4.10 m
跨度 29.00 m
形状 Box + pan
制造商 SPXS
平台类型 Starlink V2M
阶段状态 In Orbit
所有者/国家 SPXS/US

Most Searched